Weather Roundup
Issued by NWS Chicago, IL

Home | Current Version | Previous Version | Text Only | Print | Product List | Glossary On
Versions: 1 2 3 4 5 6 7 8 9 10 11 12 13 14 15 16 17 18 19 20 21 22 23 24 25 26 27 28 29 30 31 32 33 34 35 36 37 38 39 40 41 42 43 44 45 46 47 48 49 50
000
NZUS59 KLOT 260109
HRRLOT

CHICAGO AREA WEATHER ROUNDUP
NATIONAL WEATHER SERVICE CHICAGO/ROMEOVILLE IL
800 PM CDT SUN JUN 25 2017

NOTE: "FAIR" INDICATES FEW OR NO CLOUDS BELOW 12,000 FEET WITH NO
SIGNIFICANT WEATHER AND/OR OBSTRUCTIONS TO VISIBILITY.

* THESE STATIONS ARE NOT UNDER NWS QUALITY CONTROL. THEY ALSO MAY NOT
  REPORT WEATHER SUCH AS PRECIPITATION OR FOG.

ILZ005-006-012>014-019>023-260200-
NORTHEAST ILLINOIS

CITY           SKY/WX    TMP DP  RH WIND       PRES   REMARKS
OHARE          MOCLDY    66  47  50 W18G26    30.09R
MIDWAY         PTCLDY    66  47  50 W16G25    30.10R
AURORA         MOCLDY    64  49  57 W15       30.13S
LANSING*       PTCLDY    66  47  48 W17G24    30.10R
JOLIET*        PTCLDY    66  48  52 W12G18    30.13R
WAUKEGAN       CLEAR     64  49  57 W10G18    30.08R
DUPAGE AIRPORT MOCLDY    64  50  60 W17G24    30.10S
WHEELING       CLOUDY    66  50  56 W15G23    30.11R
MORRIS*        PTCLDY    64  48  55 NW16G22   30.12S
LEWIS AIRPORT* CLEAR     64  45  50 W17G23    30.12S
NORTHERLY ISL    N/A     67  45  45 W10         N/A
$$

WIZ051-052-058>065-066-070>072-260200-
SOUTHEAST WISCONSIN

CITY           SKY/WX    TMP DP  RH WIND       PRES   REMARKS
MILWAUKEE      PTCLDY    66  49  54 W10G18    30.07R
KENOSHA*       PTCLDY    63  49  60 W9        30.08R
RACINE*        CLEAR     64  48  56 W12G22    30.09R
WAUKESHA       RAIN      57  50  77 W20G31    30.10R FOG
WEST BEND      PTCLDY    55  52  88 W10G21    30.07R
$$

INZ001>003-010>013-019-020-260200-
NORTHWEST INDIANA

CITY           SKY/WX    TMP DP  RH WIND       PRES   REMARKS
GARY*          PTCLDY    70  45  40 W21G32    30.10R
MICHIGAN CITY* NOT AVBL
RENSSELAER*    NOT AVBL
VALPARAISO     CLOUDY    68  48  48 W13       30.09S
$$

LMZ740>746-260200-
SOUTHERN LAKE MICHIGAN

STATION/POSITION TIME  SKY/WX   TEMP WIND        PRES    VSBY
                                AIR  DIR/SP/G
                 (UTC)          (F)  (DEG/KT/KT) (MB)    (MI)
HARRISON CRIB    0010            68  280/ 17/ 18   N/A
BURNHAM HARBOR   0100            66                N/A
CALUMET HARBOR   0036            68  270/  7/ 13 1018.3R
BURNS HARBOR     0040            68  270/ 17/ 18 1018.6S
MICHIGAN CITY    0040            67  250/ 15/ 17   N/A
$$

ABBREVIATIONS USED IN REMARKS
   TC - TEMPERATURE IN CELSIUS
  WCI - WIND CHILL INDEX
   HX - HEAT INDEX
  VSB - VISIBILITY
$$




USA.gov is the U.S. government's official web portal to all federal, state and local government web resources and services.